Regional Weather Roundup
Issued by NWS

Home | Current Version | Previous Version | Text Only | Print | Product List | Glossary Off
Versions: 1 2 3 4 5 6 7 8 9 10 11 12 13 14 15 16 17 18 19 20 21 22 23 24 25 26 27 28 29 30 31 32 33 34 35 36 37 38 39 40 41 42 43 44 45 46 47 48 49 50

000
ASUS45 KTFX 212319
RWRMT
MONTANA HOURLY WEATHER ROUNDUP
NATIONAL WEATHER SERVICE GREAT FALLS MT
519 PM MDT SUN SEP 21 2014

NOTE: "FAIR" INDICATES FEW OR NO CLOUDS BELOW 12000 FEET WITH NO
SIGNIFICANT WEATHER AND/OR OBSTRUCTIONS TO VISIBILITY.

* THESE STATIONS ARE NOT UNDER NWS QUALITY CONTROL. THEY DO NOT
   REPORT WEATHER SUCH AS PRECIPITATION OR FOG.

MTZ001>007-043-220000-
WEST OF THE DIVIDE
CITY           SKY/WX    TMP DP  RH WIND       PRES   REMARKS
KALISPELL      CLEAR     82  41  23 CALM      29.98F
MISSOULA       PTCLDY    88  37  16 CALM      29.97F
BUTTE          MOCLDY    77  39  26 SE13      30.15F
MULLAN PASS    CLEAR     73  39  29 VRB5      30.15F
* ESSEX        N/A       80  43  27 NW3        N/A
* LINCOLN      N/A       83  38  20 NE8G15     N/A
* LOOKOUT PASS N/A       79  42  27 S6         N/A
* POLSON       N/A       81  42  25 NE3        N/A
* RONAN APT    CLEAR     81  45  28 W7         N/A
* SEELEY LAKE  N/A       85  34  16 S7         N/A
* THOMP F APT  CLEAR     70  38  31 S9G14      N/A
$$

MTZ008-052>055-220000-
SOUTHWEST MONTANA
CITY           SKY/WX    TMP DP  RH WIND       PRES   REMARKS
BOZEMAN        PTCLDY    75  45  34 VRB3      30.11F
DILLON         MOCLDY    73  39  29 NE8       30.12F
W YELLOWSTONE  CLOUDY    70  41  35 SW3       30.23F
* THREE FORKS  PTCLDY    75  55  50 N/A        N/A
* BOULDER HILL N/A       72  39  30 S10        N/A
* MONIDA PASS  N/A       68  38  33 SE10G15    N/A
* RAYNOLDS PAS N/A       72  50  46 SE10       N/A
* WHITEHALL    N/A       76  45  33 SE7        N/A
* WISE RIVER   N/A       74  34  23 SE15       N/A
$$

MTZ009>010-012-014-046-048-049-054-220000-
EAST SLOPES AND CENTRAL MONTANA
CITY           SKY/WX    TMP DP  RH WIND       PRES   REMARKS
CUT BANK       CLEAR     77  41  28 SE16G21   30.07F
GREAT FALLS    CLEAR     75  46  36 NE12      30.07F
HELENA         CLEAR     79  45  30 NW6       30.05F
MALMSTROM AFB  CLEAR     77  45  32 NE8       30.08F
* CONRAD       CLEAR     77  41  28 E11G17     N/A
* EAST GLACIER N/A       73  45  37 S6G12      N/A
* MONARCH      N/A       71  42  35 NE10       N/A
* PENDROY      N/A       75  46  36 SE14G20    N/A
* ROGERS PASS  N/A       72  43  35 SW1G6      N/A
* SAINT MARY   N/A       81  44  27 SE7G15     N/A
* SWEET GRASS  N/A       76  40  27 S21G26     N/A
* WHITE SULPH  N/A       76  43  31 E4G15      N/A
$$

MTZ011-013-016-021-035-040-045-047-050-051-220000-
NORTH CENTRAL MONTANA
CITY           SKY/WX    TMP DP  RH WIND       PRES   REMARKS
HAVRE          CLEAR     81  43  26 S7        30.06F
LEWISTOWN      CLEAR     79  45  30 VRB3      30.13F
* FORT BENTON  CLEAR     79  46  31 E10G16    30.05F
* CHESTER      N/A       76  40  27 SE8G17     N/A
* DENTON       N/A       78  42  28 SE19G27    N/A
* GEYSER       N/A       76  42  30 E13        N/A
* JUDITH GAP   N/A       70  45  41 SE14G21    N/A
* LOMA         N/A       79  45  30 E15        N/A
$$

MTZ017>020-022>027-061-062-220000-
NORTHEAST MONTANA
CITY           SKY/WX    TMP DP  RH WIND       PRES   REMARKS
GLASGOW        CLEAR     73  37  27 S8        30.16F
JORDAN         CLEAR     77  41  28 S10       30.16F
SIDNEY         CLEAR    N/A N/A N/A S3        30.20F
WOLF POINT     CLEAR     79  37  22 CALM      30.17F
* BEAVER HILL  N/A       71  31  23 N/A        N/A
* CIRCLE       N/A       75  42  31 S3         N/A
* LINDSAY DVD  N/A       72  27  19 SE8        N/A
$$

MTZ028>042-056>058-220000-
SOUTHCENTRAL AND SOUTHEAST MONTANA
CITY           SKY/WX    TMP DP  RH WIND       PRES   REMARKS
BAKER          CLEAR     73  34  24 SE3       30.23F
BILLINGS       PTCLDY    79  41  26 E13       30.14F
LIVINGSTON     PTCLDY    72  45  38 E16G22    30.15F
MILES CITY     CLEAR     79  37  22 SE10      30.17F
* LAUREL APT   CLEAR     79  43  28 NE9        N/A
* ROUNDUP APT  CLEAR     75  39  27 E8         N/A
* ALZADA       N/A       74  35  24 E7         N/A
* HYSHAM       N/A       75  42  31 SE9G15     N/A
* LAME DEER    N/A       71  41  34 E9G14      N/A
* REED POINT   N/A       75  44  33 E8         N/A
* ROSCOE HILL  N/A       70  36  29 E14        N/A
$$

REGIONAL REPORTS...DAKOTAS
CITY           SKY/WX    TMP DP  RH WIND       PRES   REMARKS
WILLISTON      CLEAR     73  32  22 SE8       30.19F
DICKINSON      CLEAR     73  36  26 CALM      30.22F
BEACH          N/A       72  27  19 CALM      30.22F
CROSBY         CLEAR     72  36  27 SW9       30.19F
TIOGA          CLEAR     72  34  25 SW8       30.23F
WATFORD CITY   CLEAR     73  32  22 S5        30.18F
BISMARCK       CLEAR     73  41  32 N7        30.22F
GRAND FORKS    FAIR      66  48  52 VRB3      30.18F
FARGO          CLEAR     66  50  56 N3        30.20F
BUFFALO SD     CLEAR     73  34  24 CALM      30.18F
RAPID CITY     CLEAR     73  37  27 SE12      30.25F
$$

REGIONAL REPORTS...WYOMING/IDAHO/WASHINGTON
CITY           SKY/WX    TMP DP  RH WIND       PRES   REMARKS
GILLETTE       PTCLDY    73  39  29 SE9       30.23F
SHERIDAN       PTCLDY    77  43  30 SE12      30.17F
CODY           MOCLDY   N/A N/A N/A N/A        N/A
YELLOWSTONE LA MOCLDY    66  34  31 CALM      30.33F
SALMON         MOCLDY    81  41  24 CALM      29.98F
MULLAN PASS    CLEAR     73  39  29 VRB5      30.15S
SAND POINT     CLEAR     82  45  27 N5        29.92F
SPOKANE        FAIR      86  39  19 CALM      29.92F
$$

REGIONAL REPORTS...ALBERTA
CITY           SKY/WX    TMP DP  RH WIND       PRES   REMARKS
CALGARY        FAIR      77  45  32 S15       29.97F
LETHBRIDGE     N/A       79  45  30 S16G24    30.00F
MEDICINE HAT   N/A       79  43  28 SE14      30.03F
EDMONTON       MOCLDY    81  45  28 SE13      29.87F
WATERTON GATE  N/A       79  46  31 E5         N/A
CARDSTON       N/A       77  48  36 SE12G20    N/A
$$

REGIONAL REPORTS...SASKATCHEWAN
CITY           SKY/WX    TMP DP  RH WIND       PRES   REMARKS
SWIFT CURRENT  CLEAR     73  37  27 S16       30.11F
MOOSE JAW      N/A       73  43  34 W9        30.13F
REGINA         N/A       72  43  35 SW8       30.14F
VAL MARIE      N/A       72  41  33 S13G18     N/A
ASSINIBOIA     N/A       73  34  24 SW7        N/A
CORONACH       N/A       73  36  26 S7         N/A

$$



USA.gov is the U.S. government's official web portal to all federal, state and local government web resources and services.